Platteville, WI

4:54 AM CDT on May 26, 2017 (GMT -0500)
Platteville Municipal

Weather History for KPVB - March, 2014

Change the Weather History Date:

Monday, March 10, 2014

  Actual Average (KDBQ) Record (KDBQ)
Temperature  
Mean Temperature 41 °F -  
Max Temperature 48 °F 41 °F 73 °F (1894)
Min Temperature 34 °F 23 °F -5 °F (2003)
Degree Days  
Heating Degree Days 24    
Moisture  
Dew Point 32 °F    
Average Humidity 73    
Maximum Humidity 85    
Minimum Humidity 56    
Precipitation  
Precipitation 0.00 in - - ()
Sea Level Pressure  
Sea Level Pressure 29.69 in    
Wind  
Wind Speed 8 mph (SW)    
Max Wind Speed 13 mph    
Max Gust Speed -    
Visibility 10 miles    
Events      
Averages and records for this station are not official NWS values.
T = Trace of Precipitation, MM = Missing Value Source: NWS Daily Summary

Daily Weather History Graph

Daily Weather History Graph

Search for Another Location

Airport or City:

Trip Planner

Search our weather history database for the weather conditions in past years. The results will help you decide how hot, cold, wet, or windy it might be!

Date:

Astronomy

Mar. 10, 2014 Rise Set
Actual Time 7:22 AM CDT 7:02 PM CDT
Civil Twilight 6:54 AM CDT 7:30 PM CDT
Nautical Twilight 6:21 AM CDT 8:03 PM CDT
Astronomical Twilight 5:48 AM CDT 8:36 PM CDT
Moon 1:40 PM CDT (3/10) 3:39 AM CDT (3/10)
Length of Visible Light 12h 36m
Length of Day
11h 39m
Waxing Gibbous, 70% of the Moon is Illuminated
Mar 10
Waxing Gibbous
Mar 16
Full
Mar 23
Last Quarter
Mar 30
New
Apr 7
First Quarter

Hourly Weather History & Observations

Time (CDT) Temp. Windchill Dew Point Humidity Pressure Visibility Wind Dir Wind Speed Gust Speed Precip Events Conditions
12:15 AM 37.8 °F 30.7 °F 32.0 °F 80% 29.74 in 10.0 mi SSW 10.4 mph - N/A   Clear
12:35 AM 38.3 °F 30.5 °F 32.0 °F 78% 29.73 in 10.0 mi SW 12.7 mph - N/A   Clear
12:55 AM 38.7 °F 31.4 °F 32.0 °F 77% 29.72 in 10.0 mi SW 11.5 mph - N/A   Clear
1:15 AM 38.7 °F 32.4 °F 32.2 °F 78% 29.72 in 10.0 mi SW 9.2 mph - N/A   Clear
1:35 AM 38.5 °F 32.1 °F 32.0 °F 78% 29.73 in 10.0 mi SW 9.2 mph - N/A   Clear
1:55 AM 38.5 °F 31.6 °F 32.0 °F 78% 29.72 in 10.0 mi SW 10.4 mph - N/A   Clear
2:15 AM 38.8 °F 32.6 °F 32.0 °F 76% 29.73 in 10.0 mi SW 9.2 mph - N/A   Clear
2:35 AM 38.7 °F 31.8 °F 32.0 °F 77% 29.73 in 10.0 mi SW 10.4 mph - N/A   Clear
2:55 AM 38.8 °F 33.2 °F 32.0 °F 76% 29.72 in 10.0 mi SW 8.1 mph - N/A   Clear
3:15 AM 38.3 °F 31.9 °F 32.0 °F 78% 29.72 in 10.0 mi SW 9.2 mph - N/A   Clear
3:35 AM 38.1 °F 33.7 °F 32.0 °F 79% 29.71 in 10.0 mi SW 5.8 mph - N/A   Clear
3:55 AM 37.4 °F 32.8 °F 32.0 °F 81% 29.70 in 10.0 mi SSW 5.8 mph - N/A   Clear
4:15 AM 36.5 °F 31.8 °F 31.5 °F 82% 29.69 in 10.0 mi SSW 5.8 mph - N/A   Clear
4:35 AM 36.1 °F 30.6 °F 31.3 °F 83% 29.69 in 10.0 mi SSW 6.9 mph - N/A   Clear
4:55 AM 35.4 °F 29.0 °F 30.7 °F 83% 29.69 in 10.0 mi SSW 8.1 mph - N/A   Clear
5:15 AM 36.3 °F 31.6 °F 31.3 °F 82% 29.69 in 10.0 mi SSW 5.8 mph - N/A   Clear
5:35 AM 36.1 °F 32.3 °F 31.3 °F 83% 29.69 in 10.0 mi SSW 4.6 mph - N/A   Clear
5:55 AM 35.8 °F 30.9 °F 31.1 °F 83% 29.69 in 10.0 mi SSW 5.8 mph - N/A   Clear
6:15 AM 35.8 °F 30.9 °F 31.1 °F 83% 29.69 in 10.0 mi SSW 5.8 mph - N/A   Clear
6:35 AM 35.8 °F 29.4 °F 30.6 °F 81% 29.68 in 10.0 mi South 8.1 mph - N/A   Clear
6:55 AM 34.7 °F 28.8 °F 30.2 °F 84% 29.67 in 10.0 mi SSW 6.9 mph - N/A   Clear
7:15 AM 34.0 °F 29.8 °F 29.8 °F 85% 29.68 in 10.0 mi SW 4.6 mph - N/A   Clear
7:35 AM 37.0 °F 33.3 °F 31.5 °F 80% 29.69 in 10.0 mi WSW 4.6 mph - N/A   Clear
7:55 AM 37.4 °F 32.1 °F 31.3 °F 79% 29.69 in 10.0 mi SW 6.9 mph - N/A   Clear
8:15 AM 37.6 °F 31.6 °F 31.3 °F 78% 29.69 in 10.0 mi SW 8.1 mph - N/A   Clear
8:30 AM 37.2 °F 31.2 °F 31.1 °F 79% 29.69 in 10.0 mi SW 8.1 mph - N/A   Clear
8:55 AM 37.8 °F 31.8 °F 31.5 °F 78% 29.69 in 10.0 mi SW 8.1 mph - N/A   Clear
9:15 AM 39.6 °F 34.7 °F 32.0 °F 74% 29.68 in 10.0 mi SSW 6.9 mph - N/A   Clear
9:35 AM 39.7 °F 33.2 °F 32.2 °F 74% 29.69 in 10.0 mi WSW 10.4 mph - N/A   Clear
9:55 AM 40.3 °F 33.9 °F 32.0 °F 72% 29.69 in 10.0 mi SW 10.4 mph - N/A   Clear
10:15 AM 40.8 °F 35.6 °F 32.2 °F 71% 29.69 in 10.0 mi WSW 8.1 mph - N/A   Clear
10:35 AM 41.5 °F 38.6 °F 32.4 °F 70% 29.69 in 10.0 mi WSW 4.6 mph - N/A   Clear
10:55 AM 41.7 °F 36.7 °F 32.4 °F 69% 29.69 in 10.0 mi WSW 8.1 mph - N/A   Clear
11:15 AM 41.7 °F 37.3 °F 32.4 °F 69% 29.69 in 10.0 mi WSW 6.9 mph - N/A   Clear
11:35 AM 43.7 °F 42.1 °F 32.9 °F 66% 29.69 in 10.0 mi WSW 3.5 mph - N/A   Clear
11:55 AM 45.1 °F - 32.9 °F 62% 29.69 in 10.0 mi Calm Calm - N/A   Clear
12:10 PM 43.2 °F 38.4 °F 32.4 °F 66% 29.69 in 10.0 mi SW 8.1 mph - N/A   Clear
12:35 PM 45.0 °F 42.6 °F 32.9 °F 63% 29.69 in 10.0 mi WSW 4.6 mph - N/A   Clear
12:55 PM 47.1 °F - 32.9 °F 58% 29.69 in 10.0 mi SW 3.5 mph - N/A   Clear
1:15 PM 46.0 °F 42.5 °F 33.1 °F 61% 29.67 in 10.0 mi SW 6.9 mph - N/A   Clear
1:35 PM 44.8 °F 39.9 °F 33.1 °F 64% 29.67 in 10.0 mi SSW 9.2 mph - N/A   Clear
1:55 PM 45.9 °F 40.8 °F 33.1 °F 61% 29.66 in 10.0 mi SSW 10.4 mph - N/A   Clear
2:15 PM 46.0 °F 43.1 °F 33.3 °F 61% 29.66 in 10.0 mi SW 5.8 mph - N/A   Clear
2:35 PM 45.7 °F 43.4 °F 33.3 °F 62% 29.65 in 10.0 mi SSW 4.6 mph - N/A   Clear
2:55 PM 48.4 °F - 33.3 °F 56% 29.65 in 10.0 mi WSW 4.6 mph - N/A   Clear
3:15 PM 47.3 °F - 33.3 °F 58% 29.65 in 10.0 mi WSW 11.5 mph - N/A   Clear
3:35 PM 46.8 °F - 33.4 °F 60% 29.66 in 10.0 mi WSW 5.8 mph - N/A   Clear
3:55 PM 47.1 °F - 33.6 °F 59% 29.66 in 10.0 mi WSW 8.1 mph - N/A   Clear
4:15 PM 47.5 °F - 33.8 °F 59% 29.66 in 10.0 mi WSW 6.9 mph - N/A   Clear
4:35 PM 47.3 °F - 33.6 °F 59% 29.66 in 10.0 mi WSW 9.2 mph - N/A   Clear
4:55 PM 46.8 °F - 33.4 °F 60% 29.66 in 10.0 mi SW 6.9 mph - N/A   Clear
5:15 PM 44.8 °F 40.4 °F 33.1 °F 64% 29.66 in 10.0 mi SW 8.1 mph - N/A   Clear
5:35 PM 44.6 °F 41.4 °F 33.3 °F 64% 29.67 in 10.0 mi SW 5.8 mph - N/A   Clear
5:55 PM 43.0 °F 39.5 °F 33.1 °F 68% 29.67 in 10.0 mi WSW 5.8 mph - N/A   Clear
6:15 PM 43.9 °F 41.3 °F 33.3 °F 66% 29.68 in 10.0 mi SSW 4.6 mph - N/A   Clear
6:35 PM 43.5 °F 40.1 °F 33.1 °F 67% 29.67 in 10.0 mi WSW 5.8 mph - N/A   Clear
6:55 PM 43.5 °F 40.1 °F 33.1 °F 67% 29.68 in 10.0 mi WSW 5.8 mph - N/A   Clear
7:15 PM 41.7 °F 38.0 °F 33.1 °F 71% 29.67 in 10.0 mi SW 5.8 mph - N/A   Clear
7:35 PM 41.2 °F 37.3 °F 32.9 °F 72% 29.68 in 10.0 mi SW 5.8 mph - N/A   Clear
7:55 PM 39.6 °F 36.3 °F 32.7 °F 76% 29.69 in 10.0 mi SW 4.6 mph - N/A   Clear
8:15 PM 41.2 °F 38.2 °F 33.1 °F 73% 29.69 in 10.0 mi SW 4.6 mph - N/A   Clear
8:35 PM 41.7 °F 38.8 °F 33.3 °F 72% 29.70 in 10.0 mi WSW 4.6 mph - N/A   Clear
8:55 PM 41.9 °F 38.2 °F 33.1 °F 71% 29.70 in 10.0 mi WSW 5.8 mph - N/A   Clear
9:15 PM 40.8 °F 36.2 °F 32.4 °F 72% 29.71 in 10.0 mi West 6.9 mph - N/A   Clear
9:35 PM 39.6 °F 34.0 °F 32.4 °F 75% 29.71 in 10.0 mi West 8.1 mph - N/A   Clear
9:55 PM 38.8 °F 34.6 °F 32.5 °F 78% 29.70 in 10.0 mi West 5.8 mph - N/A   Clear
10:15 PM 38.8 °F 35.4 °F 32.4 °F 78% 29.71 in 10.0 mi WSW 4.6 mph - N/A   Clear
10:35 PM 38.3 °F 33.9 °F 32.2 °F 79% 29.71 in 10.0 mi WSW 5.8 mph - N/A   Clear
10:55 PM 38.3 °F 35.9 °F 32.9 °F 81% 29.71 in 10.0 mi WSW 3.5 mph - N/A   Clear
11:15 PM 37.4 °F - 32.2 °F 81% 29.70 in 10.0 mi Calm Calm - N/A   Clear
11:35 PM 37.0 °F 34.5 °F 32.0 °F 82% 29.70 in 10.0 mi WSW 3.5 mph - N/A   Clear
11:55 PM 38.1 °F 35.7 °F 33.1 °F 82% 29.69 in 10.0 mi West 3.5 mph - N/A   Clear